Regional Weather Roundup
Issued by NWS Sioux Falls, SD

Home | Current Version | Previous Version | Text Only | Print | Product List | Glossary On
Versions: 1 2 3 4 5 6 7 8 9 10 11 12 13 14 15 16 17 18 19 20 21 22 23 24 25 26 27 28 29 30 31 32 33 34 35 36 37 38 39 40 41 42 43 44 45 46 47 48 49 50
975
ASUS43 KFSD 221902
RWRFSD

WEATHER ROUNDUP FOR SE SOUTH DAKOTA/SW MINNESOTA/NW IOWA
NATIONAL WEATHER SERVICE SIOUX FALLS SD
200 PM CDT WED MAR 22 2017

NOTE: "FAIR" INDICATES FEW OR NO CLOUDS BELOW 12,000 FEET WITH NO
SIGNIFICANT WEATHER AND OR OBSTRUCTIONS TO VISIBILITY.


SDZ038>040-050-052>070-222000-
SOUTHEAST SOUTH DAKOTA

CITY           SKY/WX    TMP DP  RH WIND       PRES   REMARKS
CHAMBERLAIN    CLOUDY    39  29  67 SE25G35   30.10F
HURON          CLOUDY    32  25  75 SE24G32   30.21F WCI  19
MADISON        CLOUDY    28  25  86 SE21G28   30.27F WCI  15
MITCHELL       CLOUDY    35  26  69 SE24      30.23F WCI  23
SIOUX FALLS    CLOUDY    34  22  61 SE15      30.32F WCI  24
WINNER         FAIR      46  31  55 S26G38    30.06F
YANKTON        CLOUDY    37  21  52 SE18G26   30.28F
$$

MNZ071-072-080-081-089-090-097-098-222000-
SOUTHWEST MINNESOTA

CITY           SKY/WX    TMP DP  RH WIND       PRES   REMARKS
FAIRMONT       CLOUDY    34  22  61 S16       30.43F WCI  24
JACKSON        CLOUDY    32  23  69 SE15      30.40F WCI  22
LUVERNE        CLOUDY    32  21  64 SE13      30.34F WCI  22
MARSHALL       CLOUDY    34  20  56 S21       30.36F WCI  22
MONTEVIDEO     CLOUDY    32  19  59 S17G28    30.38F WCI  21
PIPESTONE      CLOUDY    30  21  69 SE17G23   30.31F WCI  18
REDWOOD FALLS  CLOUDY    35  20  54 SE18      30.41F WCI  24
TRACY          CLOUDY    34  24  66 S17G23    30.37F WCI  23
WINDOM         MOSUNNY   34  21  60 SE17      30.39F WCI  23
WORTHINGTON    MIX PCPN  31  23  72 SE18      30.36F WCI  19
$$

IAZ001>003-012>014-020>022-031-032-NEZ013-014-SDZ071-222000-
NORTHWEST IOWA

CITY           SKY/WX    TMP DP  RH WIND       PRES   REMARKS
CHEROKEE       CLOUDY    35  23  62 SE15      30.38F WCI  25
DENISON        CLOUDY    37  27  65 SE12G21   30.35F
ESTHERVILLE    CLOUDY    32  23  69 SE15      30.42F WCI  22
LE MARS        CLOUDY    36  21  55 SE14      30.36F
ORANGE CITY    CLOUDY    34  23  64 SE10      30.35F WCI  26
SHELDON        CLOUDY    34  25  69 SE15      30.35F WCI  24
SIOUX CITY     CLOUDY    39  23  52 SE18      30.34F
SPENCER        CLOUDY    34  23  64 SE18      30.40F WCI  23
STORM LAKE     PTSUNNY   36  23  60 SE20      30.37F
$$

ABBREVIATIONS USED IN REMARKS
   TC - TEMPERATURE IN CELSIUS
  WCI - WIND CHILL INDEX
   HX - HEAT INDEX
  VSB - VISIBILITY





USA.gov is the U.S. government's official web portal to all federal, state and local government web resources and services.